Regional Weather Roundup
Issued by NWS

Home | Current Version | Previous Version | Text Only | Print | Product List | Glossary On
Versions: 1 2 3 4 5 6 7 8 9 10 11 12 13 14 15 16 17 18 19 20 21 22 23 24 25 26 27 28 29 30 31 32 33 34 35 36 37 38 39 40 41 42 43 44 45 46 47 48 49 50
491
ASUS43 KLMK 290310
RWRKY
KENTUCKY REGIONAL WEATHER ROUNDUP
NATIONAL WEATHER SERVICE LOUISVILLE KY
1100 PM EDT TUE MAR 28 2017

NOTE "FAIR" INDICATES FEW OR NO CLOUDS BELOW 12,000 FEET
WITH NO SIGNIFICANT WEATHER AND/OR OBSTRUCTIONS TO VISIBILITY.

KYZ001>023-026-027-061>063-070>075-290400-
WESTERN AND SOUTH CENTRAL KENTUCKY

CITY           SKY/WX    TMP DP  RH WIND       PRES   REMARKS
PADUCAH        CLOUDY    58  51  78 NE8       30.06R
HENDERSON      CLEAR     52  46  82 NE3       30.07S
OWENSBORO      CLEAR    N/A N/A N/A MISG      30.08S
HOPKINSVILLE   CLEAR     54  54 100 N6        30.05S
BOWLING GREEN  PTCLDY    54  52  93 CALM      30.07S
GLASGOW        CLOUDY    59  57  92 NE3       30.08S
$$

KYZ024-025-028>034-038-045-046-053-290400-
NORTH CENTRAL KENTUCKY

CITY           SKY/WX    TMP DP  RH WIND       PRES   REMARKS
LOUISVILLE/SDF CLOUDY    58  47  66 NE8       30.11R
LOUISVILLE/LOU CLOUDY    57  48  72 N5        30.12R
FORT KNOX      PTCLDY    56  49  78 NE5       30.08S
$$

KYZ035>037-039>044-047>052-055>060-089>105-290400-
NORTHEAST KENTUCKY

CITY           SKY/WX    TMP DP  RH WIND       PRES   REMARKS
LEXINGTON      MOCLDY    55  50  83 N9        30.11R
COVINGTON      CLOUDY    53  48  83 N5        30.13R
FRANKFORT      CLOUDY    57  49  74 NE5       30.10R
$$

KYZ054-064>069-076>088-106>120-290400-
SOUTHEAST KENTUCKY

CITY           SKY/WX    TMP DP  RH WIND       PRES   REMARKS
JACKSON        CLOUDY    58  53  84 CALM      30.09R
LONDON         CLEAR     57  51  80 CALM      30.08S
SOMERSET       CLOUDY    57  52  82 CALM      30.10S
MIDDLESBORO    MOCLDY    57  52  84 CALM      30.08S
MONTICELLO     CLOUDY    59  54  83 N14       30.10S
$$





USA.gov is the U.S. government's official web portal to all federal, state and local government web resources and services.